KB2UHF-8 Weather Reports


Display with metric or nautical units.
time (UTC)temp
F
wind
direction
speed
MPH
gust
MPH
rain 1hr
in
rain 24hr
in
rain mn
in
humidity
%
barometer
mb
20260510165517 56 293 10.0 22.0 0.00 0.00 0.00 37 1019.7
20260510164517 57 315 11.0 22.0 0.00 0.00 0.00 37 1019.7
20260510163517 57 315 11.0 23.0 0.00 0.00 0.00 37 1019.7
20260510162517 56 293 10.0 19.0 0.00 0.00 0.00 38 1019.4
20260510161517 56 315 6.0 14.0 0.00 0.00 0.00 39 1019.5
20260510160517 56 315 8.0 17.0 0.00 0.00 0.00 41 1019.6
20260510155557 56 270 10.0 20.0 0.00 0.00 0.00 40 1019.5
20260510154517 55 270 10.0 19.0 0.00 0.00 0.00 41 1019.5
20260510153517 56 270 7.0 16.0 0.00 0.00 0.00 38 1019.5
20260510152517 55 315 7.0 14.0 0.00 0.00 0.00 39 1019.5
20260510151517 55 270 7.0 16.0 0.00 0.00 0.00 39 1019.3
20260510150517 54 315 9.0 14.0 0.00 0.00 0.00 40 1019.3
20260510145517 54 293 5.0 11.0 0.00 0.00 0.00 40 1019.2
20260510144517 54 270 6.0 13.0 0.00 0.00 0.00 39 1019.1
20260510143517 53 315 4.0 10.0 0.00 0.00 0.00 40 1018.9
20260510142537 53 315 5.0 10.0 0.00 0.00 0.00 43 1019.1
20260510141537 52 293 5.0 9.0 0.00 0.00 0.00 46 1019.2
20260510140517 52 270 4.0 8.0 0.00 0.00 0.00 46 1019.1
20260510135517 51 270 2.0 7.0 0.00 0.00 0.00 50 1019.0
20260510134517 50 270 5.0 8.0 0.00 0.00 0.00 50 1018.9
20260510133557 49 270 5.0 9.0 0.00 0.00 0.00 52 1019.0
20260510132517 48 270 4.0 7.0 0.00 0.00 0.00 55 1018.7
20260510131517 47 270 4.0 10.0 0.00 0.00 0.00 56 1018.6
20260510130517 47 270 3.0 6.0 0.00 0.00 0.00 59 1018.7
20260510125517 45 270 3.0 7.0 0.00 0.00 0.00 61 1018.7
20260510124517 44 270 3.0 6.0 0.00 0.00 0.00 61 1018.6
20260510123537 43 270 2.0 4.0 0.00 0.00 0.00 64 1018.4
20260510122517 42 270 3.0 6.0 0.00 0.00 0.00 65 1018.2
20260510121537 39 270 2.0 4.0 0.00 0.00 0.00 71 1018.1
20260510120537 38 270 3.0 4.0 0.00 0.00 0.00 73 1018.0
20260510115517 37 270 2.0 3.0 0.00 0.00 0.00 74 1017.7
20260510114517 38 270 2.0 3.0 0.00 0.00 0.00 72 1017.7
20260510113517 39 270 2.0 3.0 0.00 0.00 0.00 66 1017.6
20260510112517 38 0.0 2.0 0.00 0.00 0.00 66 1017.4
20260510111557 37 270 1.0 3.0 0.00 0.00 0.00 68 1017.3
20260510110517 37 270 2.0 3.0 0.00 0.00 0.00 71 1017.4
20260510105516 36 270 2.0 4.0 0.00 0.00 0.00 70 1017.1
20260510104516 35 270 2.0 4.0 0.00 0.00 0.00 77 1017.2
20260510103517 36 270 2.0 3.0 0.00 0.00 0.00 73 1017.2
20260510102517 37 270 2.0 3.0 0.00 0.00 0.00 72 1017.0
20260510101517 39 270 2.0 4.0 0.00 0.00 0.00 63 1017.1
20260510100516 40 293 2.0 3.0 0.00 0.00 0.00 60 1017.0
20260510095517 40 293 2.0 3.0 0.00 0.00 0.00 60 1016.9
20260510094516 40 293 2.0 3.0 0.00 0.00 0.00 59 1016.5
20260510093516 40 293 2.0 3.0 0.00 0.00 0.00 60 1016.4
20260510092516 40 293 3.0 4.0 0.00 0.00 0.00 62 1016.0
20260510091516 40 293 3.0 3.0 0.00 0.00 0.00 62 1016.1
20260510090517 40 270 2.0 3.0 0.00 0.00 0.00 60 1016.0
20260510085516 40 270 2.0 3.0 0.00 0.00 0.00 60 1015.8
20260510084537 40 293 2.0 4.0 0.00 0.00 0.00 60 1015.7
20260510083516 40 293 2.0 3.0 0.00 0.00 0.00 61 1015.6
20260510082516 41 293 3.0 7.0 0.00 0.00 0.00 60 1015.5
20260510081516 41 293 3.0 5.0 0.00 0.00 0.00 58 1015.3
20260510080556 40 293 3.0 5.0 0.00 0.00 0.00 59 1015.2
20260510075517 40 293 3.0 3.0 0.00 0.00 0.00 60 1015.0
20260510074516 41 293 3.0 4.0 0.00 0.00 0.00 59 1015.0
20260510073516 42 293 3.0 5.0 0.00 0.00 0.00 55 1014.9
20260510072516 42 293 3.0 5.0 0.00 0.00 0.00 54 1014.7
20260510071516 42 293 4.0 5.0 0.00 0.00 0.00 55 1014.7
20260510070558 42 293 3.0 5.0 0.00 0.00 0.00 57 1014.7
20260510065516 43 293 2.0 3.0 0.00 0.00 0.00 53 1014.6
20260510064516 43 293 2.0 4.0 0.00 0.00 0.00 54 1014.6
20260510063516 42 293 2.0 3.0 0.00 0.00 0.00 55 1014.5
20260510062516 42 293 3.0 3.0 0.00 0.00 0.00 56 1014.3
20260510061516 42 293 2.0 3.0 0.00 0.00 0.00 56 1014.3
20260510060536 43 270 3.0 4.0 0.00 0.00 0.00 57 1014.4
20260510055516 44 270 3.0 4.0 0.00 0.00 0.00 55 1014.4
20260510054516 46 293 2.0 3.0 0.00 0.00 0.00 49 1014.1
20260510053536 47 293 3.0 5.0 0.00 0.00 0.00 45 1013.9
20260510052516 48 315 3.0 7.0 0.00 0.00 0.00 45 1013.8
20260510051516 48 315 3.0 5.0 0.00 0.00 0.00 45 1013.6
20260510050516 48 315 3.0 8.0 0.00 0.00 0.00 45 1013.8
20260510045517 48 315 3.0 5.0 0.00 0.00 0.00 45 1013.7
20260510044517 48 315 3.0 5.0 0.00 0.00 0.00 44 1013.6
20260510043517 48 315 3.0 6.0 0.00 0.00 0.00 44 1013.6
20260510042517 49 315 3.0 8.0 0.00 0.00 0.00 43 1013.6
20260510041537 49 315 4.0 8.0 0.00 0.00 0.00 43 1013.5
20260510040517 49 315 3.0 8.0 0.00 0.00 0.00 43 1013.3
20260510035517 49 315 4.0 8.0 0.00 0.00 0.00 42 1013.2
20260510034517 49 293 3.0 5.0 0.00 0.00 0.00 41 1013.2
20260510033517 50 293 4.0 9.0 0.00 0.00 0.00 41 1013.1
20260510032518 50 315 3.0 8.0 0.00 0.00 0.00 40 1012.8
20260510031517 51 315 3.0 7.0 0.00 0.00 0.00 39 1012.7
20260510030517 51 315 4.0 9.0 0.00 0.00 0.00 39 1012.5
20260510025517 51 315 4.0 9.0 0.00 0.00 0.00 38 1012.5
20260510024517 51 315 3.0 6.0 0.00 0.00 0.00 38 1012.1
20260510023517 52 293 4.0 10.0 0.00 0.00 0.00 37 1011.9
20260510022517 52 315 4.0 9.0 0.00 0.00 0.00 36 1011.8
20260510021557 52 293 3.0 8.0 0.00 0.00 0.00 37 1011.4
20260510020517 52 315 2.0 4.0 0.00 0.00 0.00 37 1011.4
20260510015517 53 315 4.0 9.0 0.00 0.00 0.00 37 1011.1
20260510014517 53 315 4.0 8.0 0.00 0.00 0.00 36 1010.9
20260510013517 54 315 6.0 12.0 0.00 0.00 0.00 34 1010.7
20260510012557 54 315 5.0 10.0 0.00 0.00 0.00 34 1010.4
20260510011516 55 315 5.0 11.0 0.00 0.00 0.00 34 1010.3
20260510010517 56 315 4.0 8.0 0.00 0.00 0.00 34 1010.0
20260510005517 56 315 4.0 9.0 0.00 0.00 0.00 32 1009.7
20260510004517 57 315 3.0 10.0 0.00 0.00 0.00 34 1009.6
20260510003536 57 315 5.0 9.0 0.00 0.00 0.00 32 1009.3
20260510002517 58 315 7.0 12.0 0.00 0.00 0.00 31 1009.2
20260510001516 59 338 7.0 14.0 0.00 0.00 0.00 32 1009.2
20260510000518 59 315 7.0 12.0 0.00 0.00 0.00 31 1008.9
20260509235517 60 293 6.0 13.0 0.00 0.00 0.00 31 1008.7
20260509234516 60 315 9.0 15.0 0.00 0.00 0.00 31 1008.7
20260509233516 60 293 6.0 13.0 0.00 0.00 0.00 32 1008.7
20260509232516 60 315 9.0 15.0 0.00 0.00 0.00 33 1008.6
20260509231517 61 338 9.0 16.0 0.00 0.00 0.00 33 1008.5
20260509230517 61 338 8.0 13.0 0.00 0.00 0.00 30 1008.2
20260509225516 61 338 10.0 18.0 0.00 0.00 0.00 33 1008.0
20260509224516 61 293 10.0 18.0 0.00 0.00 0.00 35 1007.7
20260509223516 62 315 9.0 18.0 0.00 0.00 0.00 35 1007.9
20260509222536 62 338 9.0 16.0 0.00 0.00 0.00 37 1007.7
20260509221516 62 315 9.0 16.0 0.00 0.00 0.00 38 1007.7
20260509220516 62 270 9.0 16.0 0.00 0.00 0.00 36 1007.4
20260509215516 62 315 8.0 16.0 0.00 0.00 0.00 37 1007.3
20260509214516 61 315 10.0 16.0 0.00 0.00 0.00 37 1007.2
20260509213516 61 315 10.0 18.0 0.00 0.00 0.00 39 1007.2
20260509212516 62 338 10.0 20.0 0.00 0.00 0.00 38 1007.2
20260509211516 61 315 11.0 19.0 0.00 0.00 0.00 37 1007.0
20260509210516 61 315 12.0 16.0 0.00 0.00 0.00 37 1007.0
20260509205516 61 293 9.0 19.0 0.00 0.00 0.00 37 1006.9
20260509204516 61 315 8.0 17.0 0.00 0.00 0.00 43 1006.9
20260509203516 61 315 9.0 17.0 0.00 0.00 0.00 40 1006.8
20260509202538 62 338 9.0 20.0 0.00 0.00 0.00 39 1007.0
20260509201536 61 315 8.0 17.0 0.00 0.00 0.00 41 1006.7
20260509200518 60 315 11.0 19.0 0.00 0.00 0.00 43 1006.7
20260509195538 60 315 10.0 16.0 0.00 0.00 0.00 44 1006.5
20260509194516 61 270 11.0 21.0 0.00 0.00 0.00 43 1006.5
20260509193516 61 315 12.0 26.0 0.00 0.00 0.00 43 1006.4
20260509192518 61 315 11.0 20.0 0.00 0.00 0.00 41 1006.5
20260509191536 61 315 11.0 20.0 0.00 0.00 0.00 45 1006.3
20260509190518 62 338 9.0 24.0 0.00 0.00 0.00 46 1006.0
20260509185516 61 293 11.0 21.0 0.00 0.00 0.00 43 1006.0
20260509184516 61 315 11.0 19.0 0.00 0.00 0.00 47 1006.1
20260509183516 61 338 9.0 17.0 0.00 0.00 0.00 50 1005.8
20260509182516 60 315 8.0 17.0 0.00 0.00 0.00 52 1005.8
20260509181516 60 315 9.0 17.0 0.00 0.00 0.00 50 1005.9
20260509180516 61 338 10.0 19.0 0.00 0.00 0.00 52 1005.9
20260509175516 61 315 9.0 16.0 0.00 0.00 0.00 53 1005.9
20260509174516 60 315 7.0 12.0 0.00 0.00 0.00 52 1005.8
20260509173616 60 270 11.0 20.0 0.00 0.00 0.00 47 1005.7
20260509172516 60 270 12.0 19.0 0.00 0.00 0.00 48 1005.6
20260509171516 60 315 11.0 22.0 0.00 0.00 0.00 50 1005.6
20260509170516 60 293 10.0 17.0 0.00 0.00 0.00 50 1005.6